[[{"header":{"parameterUnit":"m.s-1","parameterCategory":1,"la1":30.2991,"la2":30.254,"lo1":-89.0895,"lo2":-89.0444,"dy":0.0017,"dx":0.0017,"nx":28,"ny":28,"refTime":"2024-09-29T03:00:00:Z","depth":0,"parameterNumber":2,"parameterNumberName":"U-component_of_WINDS"},"data":[0,0,0,0,0,0,0,0,0,0,0,0,0,0,0,0,0,0,0,0,0,0,0,0,0,0,0,0,0,0,0,0,0,0,0,0,0,0,0,0,0,0,0,0,0,0,0,0,0,0,0,0,0,0,0,0,0,0,1.135,1.1351,0,1.1424,1.1425,1.1425,1.1423,1.1422,1.1421,1.142,1.1498,1.1501,1.1504,0,0,0,0,0,0,0,0,0,0,0,0,0,1.1212,1.1215,1.135,1.1351,1.1352,1.1424,1.1425,1.1426,1.1423,1.1422,1.1421,1.142,1.1497,1.1501,1.1504,0,0,0,0,0,0,0,0,0,0,0,0,0,1.1277,1.1215,1.135,1.136,1.1361,1.1423,1.1425,1.1426,1.1424,1.1422,1.1421,1.1419,1.1496,1.15,1.1505,1.1563,0,0,1.1519,1.1521,0,0,0,0,0,0,0,0,1.1274,1.1283,1.1357,1.1359,1.1361,1.1413,1.1404,1.1472,1.1424,1.14,1.142,1.1419,1.1471,1.1478,1.1495,1.1567,1.157,1.1519,1.1522,1.1524,1.1525,0,0,0,0,0,0,0,1.1269,1.1279,1.1379,1.1358,1.1361,1.1361,1.1369,1.1417,1.1443,1.1402,1.1402,1.1411,1.1472,1.149,1.1497,1.1571,1.1519,1.1523,1.1526,1.1527,1.1698,1.17,0,0,0,0,0,0,1.1262,1.1276,1.1377,1.1382,1.1313,1.1365,1.1374,1.1398,1.1443,1.1448,1.1412,1.141,1.1483,1.1491,1.1499,1.1573,1.1524,1.1528,1.1531,1.1696,1.1699,1.17,0,0,0,0,0,0,1.1259,1.1271,1.1374,1.1329,1.1342,1.1369,1.1396,1.14,1.1418,1.145,1.1455,1.1426,1.1483,1.1493,1.1548,1.1575,1.153,1.1534,1.1694,1.1697,1.17,1.1718,0,0,0,0,0,0,1.1255,1.127,1.1292,1.1329,1.1344,1.142,1.1398,1.1402,1.1426,1.1425,1.1465,1.147,1.1482,1.1541,1.1552,1.1581,1.1538,1.1692,1.1695,1.1699,1.1715,1.1721,1.1726,0,0,0,0,0,1.125,1.1294,1.1293,1.1305,1.1371,1.1422,1.143,1.1443,1.1428,1.1451,1.1472,1.1468,1.157,1.1547,1.1559,1.1589,1.169,1.1694,1.1698,1.1713,1.172,1.1726,0,0,0,0,0,0,1.1259,1.1299,1.1298,1.1355,1.1385,1.1421,1.145,1.145,1.1485,1.1483,1.1498,1.1507,1.1562,1.1581,1.1554,1.165,1.1629,1.1635,1.1635,1.1642,1.1648,1.1642,1.1541,0,0,0,0,0,1.1267,1.1304,1.1337,1.1384,1.1399,1.1422,1.1444,1.1452,1.1484,1.1497,1.1521,1.1553,1.1593,1.1619,1.1656,1.1718,1.1728,1.1745,1.1751,1.1755,1.1761,1.1797,1.1806,1.1714,1.1714,1.1714,0,0,1.1285,1.1312,1.1334,1.1387,1.1411,1.145,1.1433,1.1474,1.1504,1.1503,1.1557,1.1576,1.1613,1.1672,1.17,1.169,1.1789,1.176,1.1763,1.1767,1.1802,1.1811,1.1819,1.1717,1.1716,1.1716,0,0,1.1338,1.1361,1.1404,1.1428,1.1465,1.148,1.1491,1.1528,1.1541,1.1594,1.1596,1.1632,1.1699,1.1726,1.1748,1.1814,1.1813,1.1826,1.1855,1.189,1.1898,1.1904,1.1929,1.1938,1.1832,1.1832,1.1832,0,1.1356,1.1414,1.1426,1.1468,1.1492,1.1493,1.1538,1.1561,1.1609,1.1626,1.1615,1.1701,1.1725,1.1792,1.1808,1.1826,1.184,1.1822,1.1895,1.1902,1.1908,1.1933,1.1942,1.1833,1.1833,1.1833,1.1833,0,1.1435,1.1475,1.1505,1.1551,1.1579,1.1621,1.1642,1.1668,1.1674,1.1691,1.1747,1.1778,1.1823,1.1839,1.1844,1.1907,1.19,1.1892,1.1871,1.1918,1.1942,1.1951,1.1835,1.1835,1.1834,1.1834,0,0,1.1494,1.1547,1.1558,1.158,1.1622,1.1654,1.1698,1.1742,1.1765,1.1799,1.1837,1.1895,1.1888,1.1914,1.1923,1.1954,1.2007,1.1942,1.1943,1.1954,1.208,1.2087,1.2097,1.2006,1.2008,1.201,1.2077,0,1.1553,1.163,1.1643,1.1711,1.175,1.1752,1.1791,1.1822,1.184,1.1876,1.1896,1.1938,1.1924,1.194,1.1971,1.1994,1.2032,1.1989,1.2044,1.2046,1.2036,1.2109,1.2116,1.2178,1.2086,1.2088,1.2089,0,1.163,1.1666,1.1738,1.1776,1.1793,1.1827,1.187,1.1904,1.194,1.1951,1.1981,1.1987,1.2035,1.2012,1.2079,1.205,1.2073,1.2088,1.2091,1.2097,1.2071,1.2119,1.2198,1.2208,1.2103,1.2102,1.2101,0,1.1669,1.1734,1.1786,1.1805,1.1851,1.1875,1.1896,1.193,1.1956,1.1994,1.2011,1.2054,1.2078,1.2112,1.213,1.2111,1.2197,1.2175,1.2209,1.2209,1.2228,1.2226,1.2313,1.2241,1.2241,1.2241,1.2241,0,1.1733,1.1777,1.1804,1.1837,1.1887,1.1903,1.1953,1.1973,1.2004,1.2042,1.2047,1.2083,1.2104,1.2143,1.2158,1.2213,1.2224,1.2235,1.2239,1.2235,1.2234,1.2252,1.2248,1.2243,1.2243,1.2242,1.2242,0,1.1784,1.1804,1.1861,1.19,1.1911,1.1947,1.1981,1.2013,1.2031,1.2079,1.2091,1.212,1.2167,1.2188,1.2246,1.2256,1.232,1.232,1.2307,1.2309,1.2342,1.2339,1.2445,1.246,1.2376,1.2377,1.2378,0,1.1824,1.1858,1.1901,1.1926,1.1947,1.1988,1.2015,1.2032,1.206,1.2105,1.2133,1.2179,1.2218,1.2293,1.232,1.2365,1.2367,1.2401,1.2374,1.237,1.2369,1.2367,1.2372,1.2406,1.2406,1.2407,1.2408,0,1.1893,1.1902,1.194,1.1982,1.2014,1.2048,1.2082,1.2103,1.2126,1.2158,1.2205,1.2235,1.2295,1.2342,1.2389,1.2412,1.2415,1.2416,1.2427,1.2424,1.2416,1.2422,1.2322,1.2414,1.2413,1.2413,1.2412,1.2412,1.1941,1.1973,1.2008,1.2051,1.2078,1.211,1.2143,1.2166,1.2205,1.2254,1.2263,1.2314,1.2352,1.2415,1.244,1.2482,1.2474,1.2489,1.2493,1.2497,1.2499,1.2408,1.249,1.249,1.249,1.249,1.249,0,1.2013,1.2036,1.2075,1.2122,1.2157,1.2155,1.2193,1.2223,1.2267,1.2301,1.2339,1.2395,1.2442,1.2473,1.2521,1.2548,1.2551,1.256,1.2559,1.2565,1.2503,1.2489,1.2557,1.2557,1.2557,1.2557,1.2557,1.2557,1.2054,1.2107,1.2121,1.2189,1.2212,1.2262,1.2284,1.2314,1.2342,1.2404,1.2442,1.2462,1.2496,1.2546,1.259,1.2598,1.2616,1.2626,1.2634,1.2576,1.2569,1.2562,1.255,1.2629,1.2629,1.2693,1.2693,1.2694]},{"header":{"parameterUnit":"m.s-1","parameterCategory":1,"la1":30.2991,"la2":30.254,"lo1":-89.0895,"lo2":-89.0444,"dy":0.0017,"dx":0.0017,"nx":28,"ny":28,"refTime":"2024-09-29T03:00:00:Z","depth":0,"parameterNumber":3,"parameterNumberName":"V-component_of_WINDS"},"data":[0,0,0,0,0,0,0,0,0,0,0,0,0,0,0,0,0,0,0,0,0,0,0,0,0,0,0,0,0,0,0,0,0,0,0,0,0,0,0,0,0,0,0,0,0,0,0,0,0,0,0,0,0,0,0,0,0,0,-2.0222,-2.0222,0,-2.0296,-2.0297,-2.0298,-2.031,-2.0309,-2.0309,-2.0308,-2.0381,-2.0383,-2.0386,0,0,0,0,0,0,0,0,0,0,0,0,0,-2.0085,-2.0088,-2.0221,-2.0222,-2.0223,-2.0296,-2.0297,-2.0298,-2.031,-2.0309,-2.0309,-2.0308,-2.038,-2.0383,-2.0386,0,0,0,0,0,0,0,0,0,0,0,0,0,-2.015,-2.0089,-2.0221,-2.0238,-2.0241,-2.0296,-2.0297,-2.0298,-2.031,-2.0309,-2.0308,-2.0308,-2.0379,-2.0383,-2.0386,-2.0428,0,0,-2.0398,-2.0399,0,0,0,0,0,0,0,0,-2.0147,-2.0155,-2.0235,-2.0237,-2.024,-2.0293,-2.0275,-2.0342,-2.0311,-2.0284,-2.0308,-2.0307,-2.0352,-2.0358,-2.0374,-2.0432,-2.0435,-2.0398,-2.04,-2.0402,-2.0403,0,0,0,0,0,0,0,-2.0142,-2.0152,-2.0251,-2.0236,-2.0239,-2.0241,-2.0249,-2.0288,-2.0322,-2.0286,-2.0287,-2.0296,-2.0353,-2.037,-2.0376,-2.0436,-2.0398,-2.0401,-2.0404,-2.0405,-2.053,-2.0531,0,0,0,0,0,0,-2.0135,-2.0148,-2.0248,-2.0253,-2.019,-2.0244,-2.0253,-2.0277,-2.0322,-2.0328,-2.0297,-2.0296,-2.0364,-2.0371,-2.0378,-2.0429,-2.0402,-2.0406,-2.0408,-2.0529,-2.053,-2.0531,0,0,0,0,0,0,-2.0132,-2.0144,-2.0245,-2.0201,-2.0214,-2.0247,-2.0274,-2.0279,-2.0296,-2.033,-2.0336,-2.0308,-2.0364,-2.0373,-2.0416,-2.0432,-2.0407,-2.0411,-2.0527,-2.0529,-2.053,-2.0531,0,0,0,0,0,0,-2.0128,-2.0143,-2.0161,-2.0201,-2.0217,-2.0283,-2.0275,-2.0281,-2.0303,-2.0303,-2.0342,-2.0348,-2.0364,-2.041,-2.0419,-2.0436,-2.0414,-2.0526,-2.0528,-2.053,-2.053,-2.0533,-2.0535,0,0,0,0,0,-2.0123,-2.0158,-2.0161,-2.0173,-2.0239,-2.0284,-2.0292,-2.0311,-2.0304,-2.0321,-2.0342,-2.0346,-2.0429,-2.0414,-2.0425,-2.0443,-2.0525,-2.0527,-2.053,-2.0529,-2.0532,-2.0535,0,0,0,0,0,0,-2.0117,-2.0163,-2.0168,-2.0217,-2.0246,-2.0286,-2.0308,-2.0314,-2.0346,-2.0345,-2.0365,-2.0374,-2.0415,-2.0434,-2.0417,-2.0485,-2.0476,-2.0481,-2.0472,-2.0475,-2.0478,-2.0472,-2.0417,0,0,0,0,0,-2.0121,-2.0155,-2.0193,-2.0232,-2.0247,-2.0275,-2.0295,-2.0307,-2.0338,-2.035,-2.0375,-2.0404,-2.0436,-2.0457,-2.0488,-2.0533,-2.054,-2.0551,-2.0553,-2.0555,-2.0559,-2.0581,-2.0586,-2.0539,-2.0539,-2.0539,0,0,-2.013,-2.016,-2.018,-2.0232,-2.0256,-2.0289,-2.0285,-2.0321,-2.0344,-2.0355,-2.0397,-2.0416,-2.0449,-2.0493,-2.0513,-2.0509,-2.0573,-2.0558,-2.0559,-2.0562,-2.0584,-2.0589,-2.0593,-2.054,-2.054,-2.054,0,0,-2.0163,-2.019,-2.0224,-2.0249,-2.0286,-2.0304,-2.0312,-2.0351,-2.0364,-2.0407,-2.0415,-2.0443,-2.0498,-2.0521,-2.054,-2.058,-2.0584,-2.0589,-2.0602,-2.0624,-2.0628,-2.0631,-2.0644,-2.0648,-2.0593,-2.0593,-2.0593,0,-2.0169,-2.022,-2.0241,-2.0276,-2.0297,-2.0309,-2.0343,-2.0366,-2.0411,-2.0425,-2.042,-2.0489,-2.0512,-2.056,-2.057,-2.0585,-2.0594,-2.0585,-2.0626,-2.063,-2.0633,-2.0645,-2.065,-2.0593,-2.0593,-2.0593,-2.0593,0,-2.0225,-2.026,-2.0283,-2.0327,-2.0352,-2.0386,-2.041,-2.0432,-2.0441,-2.0459,-2.0501,-2.0529,-2.0566,-2.0578,-2.0588,-2.0627,-2.0623,-2.0622,-2.0613,-2.0638,-2.0649,-2.0654,-2.0594,-2.0594,-2.0593,-2.0593,0,0,-2.0256,-2.0311,-2.0319,-2.0338,-2.0379,-2.0406,-2.0439,-2.0476,-2.0494,-2.0524,-2.0551,-2.0597,-2.0596,-2.0618,-2.0629,-2.0649,-2.0676,-2.0645,-2.0646,-2.0649,-2.0719,-2.0719,-2.0724,-2.0679,-2.068,-2.0681,-2.0716,0,-2.0293,-2.0355,-2.0374,-2.0425,-2.0456,-2.0467,-2.0496,-2.0524,-2.0541,-2.0569,-2.0588,-2.0619,-2.0616,-2.0629,-2.0649,-2.0669,-2.069,-2.0667,-2.0703,-2.0704,-2.0694,-2.073,-2.0731,-2.0762,-2.072,-2.0721,-2.0722,0,-2.0344,-2.0376,-2.043,-2.0466,-2.048,-2.0506,-2.054,-2.0567,-2.0598,-2.0609,-2.0632,-2.0642,-2.0675,-2.0665,-2.071,-2.0694,-2.0709,-2.0721,-2.0723,-2.0726,-2.0714,-2.0733,-2.0772,-2.0776,-2.073,-2.0729,-2.0728,0,-2.0359,-2.0416,-2.0455,-2.0471,-2.0515,-2.0532,-2.0551,-2.058,-2.0601,-2.063,-2.0643,-2.0676,-2.0693,-2.0717,-2.0735,-2.0726,-2.0778,-2.0769,-2.0786,-2.0785,-2.0796,-2.0795,-2.0837,-2.0808,-2.0808,-2.0808,-2.0808,0,-2.0398,-2.043,-2.0462,-2.0486,-2.0522,-2.0543,-2.0577,-2.0596,-2.0622,-2.0649,-2.066,-2.0684,-2.0707,-2.0733,-2.0747,-2.0781,-2.0789,-2.0798,-2.0801,-2.0796,-2.0795,-2.0806,-2.0804,-2.0809,-2.0809,-2.0809,-2.0808,0,-2.0421,-2.0444,-2.0487,-2.0524,-2.0534,-2.0559,-2.059,-2.0613,-2.063,-2.0663,-2.0672,-2.0699,-2.0731,-2.0751,-2.0792,-2.0801,-2.0838,-2.0841,-2.0828,-2.0829,-2.0844,-2.0842,-2.0894,-2.0901,-2.0869,-2.0869,-2.0869,0,-2.0443,-2.0469,-2.0508,-2.0527,-2.0546,-2.0577,-2.0598,-2.0618,-2.0639,-2.0675,-2.0692,-2.0725,-2.0753,-2.0803,-2.0825,-2.0855,-2.0858,-2.0874,-2.0862,-2.0856,-2.0856,-2.0854,-2.0856,-2.0875,-2.0876,-2.0876,-2.0876,0,-2.048,-2.049,-2.052,-2.0554,-2.0579,-2.0606,-2.0633,-2.0648,-2.0672,-2.0695,-2.0728,-2.0749,-2.079,-2.0822,-2.0854,-2.0871,-2.0877,-2.088,-2.0885,-2.088,-2.0871,-2.0874,-2.0832,-2.0878,-2.0878,-2.0878,-2.0878,-2.0878,-2.0503,-2.0525,-2.0556,-2.0589,-2.0612,-2.0636,-2.0659,-2.0679,-2.0708,-2.0744,-2.0754,-2.0788,-2.0815,-2.0859,-2.0877,-2.0903,-2.09,-2.0908,-2.091,-2.0911,-2.0911,-2.0868,-2.0909,-2.0909,-2.0909,-2.0908,-2.0908,0,-2.0539,-2.0559,-2.0589,-2.0627,-2.0652,-2.0657,-2.0687,-2.0707,-2.0737,-2.0763,-2.079,-2.0827,-2.0857,-2.0881,-2.0912,-2.0928,-2.0931,-2.0935,-2.0934,-2.0937,-2.0912,-2.0904,-2.0932,-2.0932,-2.0932,-2.0932,-2.0932,-2.0932,-2.0561,-2.0598,-2.0611,-2.0659,-2.0679,-2.0714,-2.073,-2.0752,-2.0773,-2.0814,-2.084,-2.0856,-2.088,-2.0913,-2.094,-2.0946,-2.0956,-2.0959,-2.0966,-2.0942,-2.0939,-2.0936,-2.0929,-2.0962,-2.0962,-2.0988,-2.0989,-2.0989]}]]